Location: *
(35.8942°N, 23.3025°E)
Time: 23:38:39
(UTC+00:00)

Aureole 1 Rocket - Pass Details

Date: 21 September 2021
Orbit: 379 x 1369 km, 73.9° (Epoch: 22 October)

Event Time Altitude Azimuth Distance (km) Brightness Sun altitude
Rises 03:03:41 0° 336° (NNW) 3,125 6.5 -14.9°
Reaches altitude 10° 03:06:22 10° 331° (NNW) 2,033 5.5 -14.4°
Maximum altitude 03:10:36 46° 258° (WSW) 722 3.0 -13.6°
Drops below altitude 10° 03:13:56 10° 184° (S) 1,603 5.0 -12.9°
Sets 03:15:50 0° 178° (S) 2,386 6.0 -12.5°
